Theta_e
324 319 315 313 296 293 290 297 300 302 305 311 322 323 319 323 324 316 340 360 362 361 363 366 366 366 366 365 363 362 361 362 362 362 362 361 361 361 362 362 363 363 361 360 359 358 356 354 351
323 320 311 301 291 287 290 296 299 302 306 313 319 320 321 321 330 337 351 360 361 360 361 364 366 366 365 363 362 361 362 362 361 361 361 361 361 362 362 363 363 362 360 359 358 356 353 351 349
316 318 304 295 289 288 290 296 299 304 307 307 310 320 320 322 329 331 348 360 359 357 360 364 366 365 365 362 361 361 361 361 361 361 361 361 361 361 361 362 362 361 360 359 357 355 353 351 348
311 305 301 294 291 296 296 301 302 302 306 305 315 313 319 328 330 335 359 358 356 357 360 365 365 365 364 362 361 361 361 361 361 362 361 361 361 360 361 361 361 361 359 358 356 354 353 350 347
306 298 293 290 291 296 300 301 302 302 302 304 305 311 315 321 323 332 358 357 355 356 359 362 365 365 364 362 361 361 361 361 361 361 361 360 360 360 360 360 361 361 358 357 355 352 351 349 347
297 295 288 287 291 297 299 300 301 303 302 304 310 307 308 314 314 318 359 356 359 357 358 361 365 364 363 363 361 361 361 360 361 361 360 360 360 360 360 359 360 360 359 356 354 352 349 347 346
294 292 288 289 293 296 299 301 301 300 302 304 304 303 305 310 311 341 356 358 358 358 358 360 361 363 364 362 361 360 360 360 359 359 359 360 360 360 360 359 359 359 358 357 355 351 348 347 348
298 294 290 291 293 293 299 300 300 301 302 307 308 302 300 309 313 332 355 355 355 355 357 356 359 360 359 359 362 360 360 360 359 359 359 359 359 359 359 357 358 359 358 358 355 351 350 349 349
298 290 288 291 293 295 297 297 302 305 301 304 306 306 309 311 312 311 327 352 352 353 351 354 355 355 356 357 359 360 360 360 359 359 359 356 354 354 356 357 358 359 358 357 354 352 351 350 350
293 287 289 295 295 295 297 297 298 300 300 301 303 307 308 309 310 307 306 328 347 349 349 350 352 353 355 358 357 356 356 356 356 356 355 353 351 352 355 355 358 359 358 357 354 353 352 351 341
292 290 294 298 298 298 298 298 300 298 297 299 300 302 305 306 305 307 307 314 343 349 350 347 347 349 351 352 355 354 353 352 351 354 353 348 348 349 350 347 352 352 356 348 350 347 345 341 339
291 296 296 296 297 296 295 299 299 298 299 303 304 304 304 304 302 304 306 306 314 347 349 350 346 345 342 351 352 351 350 349 348 353 351 347 342 341 340 342 344 346 345 344 340 339 339 338 337
292 296 299 299 298 298 299 298 296 297 302 303 304 304 304 304 303 303 305 307 309 333 347 349 348 345 346 348 348 348 348 349 350 350 350 348 343 339 339 342 343 344 342 340 338 336 336 335 336
296 298 298 298 298 297 297 300 297 302 302 303 303 303 303 304 305 301 302 304 306 311 344 349 350 350 350 346 345 344 345 346 346 346 348 348 343 340 338 341 341 341 341 340 339 333 334 336 336
299 294 296 297 297 296 299 294 295 302 303 301 302 302 303 304 305 303 303 302 304 308 326 343 348 348 347 345 342 342 343 343 342 342 344 346 341 339 338 340 342 342 341 337 336 336 335 336 338
294 293 287 295 296 298 295 289 298 301 299 300 302 303 304 303 304 304 305 303 305 307 313 333 349 347 346 346 346 344 345 343 342 341 341 344 341 338 339 340 342 344 338 337 338 339 337 336 337
289 286 286 290 295 295 292 292 297 300 299 298 298 300 302 302 303 304 305 305 306 306 310 314 342 344 345 345 346 347 348 350 344 342 342 343 342 340 342 340 339 338 335 335 336 336 335 336 337
284 284 285 287 292 293 291 292 296 298 298 297 300 301 301 302 304 306 306 307 307 308 310 315 329 341 342 343 342 343 344 342 347 347 349 345 342 341 344 340 340 338 334 336 334 335 338 338 337
290 289 288 291 294 292 292 292 296 299 296 296 298 300 300 301 304 306 308 309 309 307 308 313 320 325 334 334 341 338 339 340 341 343 342 342 346 346 345 342 339 336 335 335 338 339 336 332 331
293 289 288 291 296 294 293 293 297 297 295 297 297 299 301 303 301 304 306 307 309 309 309 311 321 322 325 327 338 339 339 337 338 339 343 341 341 345 345 342 339 335 334 337 340 338 335 330 326
290 288 289 289 294 294 293 290 294 298 298 299 303 305 303 305 304 304 305 306 307 308 310 315 323 322 325 332 336 337 338 338 337 333 333 338 340 339 343 342 339 340 338 339 339 339 334 323 324
287 294 293 292 289 284 291 282 290 293 297 299 302 305 306 307 307 302 303 304 306 310 311 318 322 322 324 325 326 331 331 330 334 338 339 341 345 342 344 341 340 341 340 339 339 339 334 325 320
291 296 293 292 288 285 287 282 286 294 295 297 302 305 307 309 307 304 303 307 308 310 318 318 318 317 318 319 325 324 325 331 331 334 335 337 341 345 345 342 340 339 339 338 338 330 329 323 322
298 293 290 287 284 278 284 286 286 290 295 298 302 304 306 308 309 307 307 310 308 309 311 316 316 315 316 321 324 323 322 325 331 330 332 333 338 342 342 343 338 337 337 331 325 324 323 316 313
293 285 277 277 276 277 288 286 287 296 300 301 302 304 306 308 308 307 306 307 311 311 313 313 316 318 319 323 325 325 326 328 330 332 330 333 334 338 339 339 336 336 328 325 324 322 320 315 311
288 286 278 275 276 281 289 282 287 300 303 305 306 305 307 307 308 307 305 306 307 310 311 314 313 316 323 328 326 331 331 331 331 333 332 331 336 340 339 337 336 328 324 322 320 319 320 316 312
289 285 289 282 283 279 283 288 296 300 300 303 305 306 306 306 306 306 306 306 307 308 309 309 313 313 314 316 318 321 330 330 330 329 331 331 332 337 334 333 327 323 321 320 320 318 314 312 311
291 292 280 282 278 276 281 283 284 293 295 300 303 304 305 306 307 305 305 306 307 307 308 310 312 312 314 314 316 321 323 331 330 330 331 334 334 329 325 322 319 317 318 318 318 314 312 310 308
288 285 286 286 285 279 279 281 294 295 297 296 300 303 305 306 307 306 304 306 307 306 307 309 311 311 313 315 315 317 318 325 328 329 331 329 329 326 323 319 317 317 318 318 314 312 310 308 306
292 288 287 280 279 284 283 282 298 299 300 299 300 303 305 307 307 307 307 306 306 305 307 309 309 310 311 314 316 316 321 325 326 328 329 327 322 320 318 317 317 318 316 314 313 309 307 305 303
Wind_Speed
7 7 1 4 5 6 5 4 1 9 8 5 7 10 5 6 2 5 5 12 14 14 11 11 13 14 17 17 15 15 16 17 17 17 16 15 14 14 13 12 12 11 12 11 10 9 9 8 7
4 5 4 2 6 2 7 4 4 5 4 7 7 6 10 6 6 9 6 9 14 14 11 10 14 14 14 16 18 17 18 17 17 17 17 16 15 13 13 12 11 11 11 10 9 8 7 6 6
3 1 4 4 4 5 5 1 8 15 12 4 5 4 4 3 2 5 6 14 14 13 11 11 16 15 15 15 14 16 16 18 18 18 17 17 15 14 13 12 10 10 10 9 9 8 7 6 4
3 5 5 5 5 8 5 10 11 10 10 4 7 8 4 2 2 6 15 15 13 13 12 14 16 15 15 15 15 15 16 16 17 17 17 16 15 13 12 12 10 10 10 9 8 7 6 5 4
4 3 4 2 5 7 5 7 12 15 3 6 2 3 4 4 4 9 15 14 14 9 9 12 17 16 15 15 15 15 16 16 16 16 16 16 15 13 11 12 10 9 9 9 8 7 6 5 5
5 4 5 1 5 7 6 8 9 8 5 4 10 5 2 6 9 5 15 11 10 12 9 8 13 16 16 15 14 14 14 15 16 16 15 14 14 13 12 12 12 10 9 9 8 7 6 6 7
5 5 3 2 5 6 7 10 12 8 9 9 3 4 3 7 4 7 8 10 10 10 10 8 7 10 14 15 14 13 13 14 15 15 16 16 15 14 12 12 12 12 10 9 8 8 8 9 10
5 4 4 3 3 6 7 9 4 10 6 13 3 4 2 6 5 9 9 8 9 8 8 7 7 8 7 8 14 14 13 12 13 14 14 14 15 14 13 11 11 12 11 10 10 10 10 10 11
4 5 2 4 5 8 5 8 7 6 4 5 6 6 6 11 9 2 5 6 5 6 6 7 6 5 7 6 9 12 15 13 12 12 14 11 6 8 11 11 12 13 12 11 11 11 11 10 11
5 5 6 6 2 5 5 4 5 8 11 7 14 17 5 6 9 8 5 6 3 6 8 7 8 8 9 8 7 7 8 7 6 6 8 6 6 7 9 11 14 14 13 13 12 12 11 9 4
0 6 4 4 2 2 6 4 2 3 8 6 10 13 11 3 7 9 6 3 8 7 6 8 7 6 8 6 7 5 4 5 5 8 8 5 5 5 5 3 6 5 11 4 6 6 4 6 5
4 3 1 4 2 3 4 4 7 5 10 9 9 9 5 10 6 6 9 5 3 9 7 8 9 8 7 4 6 6 5 5 6 8 8 5 3 4 4 4 5 5 4 5 5 4 5 6 6
4 6 10 11 12 9 6 13 6 7 12 10 10 9 12 13 8 6 7 9 3 6 7 9 11 10 7 8 5 6 7 6 8 7 8 6 6 5 5 5 5 6 4 4 5 5 5 6 6
5 7 10 7 11 8 7 17 4 20 7 9 10 11 11 11 14 5 6 7 9 7 8 8 12 12 9 9 10 7 7 8 6 6 8 10 7 6 6 6 6 6 5 6 6 4 4 7 4
5 7 9 8 6 6 7 7 8 21 17 12 12 10 11 13 12 11 9 8 8 6 8 7 8 7 9 8 8 8 8 7 7 8 10 12 10 9 7 7 7 7 5 6 4 5 5 5 3
6 4 3 9 4 5 1 10 6 10 8 12 12 10 11 13 12 11 10 9 8 7 8 9 7 7 7 7 6 6 7 7 8 8 8 11 11 11 8 7 7 7 4 5 4 5 4 4 4
5 6 5 8 7 7 2 21 6 10 10 11 11 10 10 9 11 10 11 10 10 10 9 8 8 9 9 7 5 6 6 4 4 5 5 8 11 12 9 7 5 5 4 4 4 4 2 2 2
6 5 4 6 8 7 8 14 13 9 8 13 16 10 9 10 15 15 13 11 11 10 9 9 8 8 7 4 2 2 3 3 3 3 1 6 5 8 9 6 7 6 4 5 4 3 1 2 3
5 5 10 5 5 7 11 10 21 15 9 11 14 15 12 13 14 12 13 11 10 7 8 9 9 9 4 2 3 2 4 2 3 5 5 4 4 6 8 9 5 4 5 6 5 3 4 1 1
6 7 7 7 7 9 12 18 20 11 10 9 11 13 16 15 9 13 13 11 9 11 11 9 9 9 7 3 3 3 3 2 2 2 6 6 8 8 6 6 9 6 4 6 6 5 3 2 1
5 5 6 9 13 3 13 8 14 18 9 9 9 13 6 10 15 16 11 11 10 10 10 11 11 10 7 7 3 1 2 1 2 2 3 8 9 16 6 6 7 6 6 5 4 5 6 4 1
5 6 6 9 8 11 6 14 12 6 11 5 13 14 12 17 17 9 7 6 8 12 9 10 9 9 8 9 5 6 5 4 4 4 4 6 7 7 4 10 8 6 4 5 5 4 3 5 5
5 6 2 5 9 6 7 2 7 8 7 10 13 17 19 18 12 12 6 5 7 6 8 9 9 9 9 8 8 5 4 5 2 2 4 5 8 8 7 7 5 9 5 4 6 4 5 2 4
5 6 7 5 2 3 3 1 5 4 8 6 11 13 20 18 21 21 8 12 7 6 6 1 7 9 8 7 8 10 10 4 2 2 3 3 4 7 10 12 12 9 5 5 5 3 3 5 5
11 9 7 7 5 6 5 5 9 5 6 6 8 16 16 18 14 17 11 10 12 10 8 7 5 6 6 6 5 4 5 5 6 5 4 4 4 6 10 11 12 8 7 7 7 5 4 3 5
4 6 5 7 5 16 0 7 6 3 2 5 11 12 17 16 11 13 10 8 9 10 10 8 7 7 3 5 1 2 6 5 4 3 3 4 6 8 11 9 4 7 9 10 10 6 4 4 6
4 3 6 5 3 5 5 7 3 3 3 4 6 10 12 15 11 11 10 9 8 9 9 8 9 7 5 3 4 4 4 6 5 4 3 4 3 4 9 9 13 11 6 9 14 8 7 6 6
5 0 5 5 5 6 5 5 7 2 5 6 8 7 9 18 15 9 8 8 7 7 6 8 8 8 7 6 4 3 4 5 2 3 3 4 3 10 13 13 15 13 12 11 12 2 10 9 6
4 2 1 2 3 5 5 7 3 5 5 3 7 6 4 13 16 8 7 7 5 5 7 7 8 8 9 10 7 6 6 4 2 5 5 4 4 8 11 16 17 16 14 16 14 9 11 9 8
5 6 5 5 7 4 4 12 11 7 4 2 6 9 11 8 14 12 4 7 6 7 7 8 7 9 8 9 10 6 4 4 5 6 7 7 9 9 11 12 18 13 12 13 14 13 9 8 7
Wind_Direction
327 309 323 34 55 61 272 265 142 312 5 0 64 100 143 18 88 185 156 137 138 143 149 161 159 155 141 137 134 128 126 124 122 120 118 115 114 114 116 118 119 121 125 125 123 117 110 105 103
330 339 43 71 85 61 269 250 323 263 290 149 86 97 53 69 45 98 103 161 151 146 147 156 160 153 144 143 143 142 138 135 130 128 126 124 123 124 124 123 127 130 132 130 130 121 119 118 108
292 63 82 95 113 193 241 266 305 309 296 340 127 62 95 141 51 137 145 155 148 145 148 158 155 151 146 148 146 143 142 139 139 138 139 136 136 136 135 134 136 138 137 140 139 136 139 133 134
14 16 23 87 237 262 255 298 295 284 281 325 125 87 41 265 159 146 146 151 144 151 153 154 151 148 147 153 154 149 146 146 144 143 143 142 143 145 151 145 143 145 147 151 147 148 156 159 178
34 56 57 35 275 270 286 271 283 275 308 341 324 87 111 6 60 90 148 156 147 143 150 153 152 149 150 158 161 158 152 150 149 149 148 148 149 153 157 149 148 149 156 164 164 165 175 194 211
32 86 60 261 273 285 312 326 329 350 353 34 62 65 322 297 39 16 160 153 137 138 141 149 156 153 154 159 163 162 157 154 153 151 151 153 156 161 165 163 157 160 169 178 179 182 193 215 231
117 85 209 300 274 330 6 319 25 332 1 5 356 78 321 344 45 87 120 117 129 133 137 143 152 158 154 158 162 162 161 161 159 160 159 160 165 170 177 172 171 172 177 187 194 198 205 222 238
111 95 345 263 296 288 335 349 317 17 21 313 17 43 275 257 290 111 119 127 129 136 140 143 150 151 151 163 163 162 163 167 164 166 166 166 170 175 180 185 187 181 188 197 206 215 215 229 245
88 66 255 272 31 283 330 7 330 300 11 325 356 46 356 321 310 99 86 104 121 139 144 142 150 152 146 150 172 165 167 171 173 174 171 166 175 180 187 187 199 190 196 208 217 227 227 236 255
107 115 235 204 229 296 306 24 335 7 345 339 338 337 11 6 11 354 69 148 181 161 170 169 167 170 164 168 168 168 171 167 175 183 182 179 181 187 188 196 199 198 205 213 223 235 243 247 252
12 178 227 274 271 359 316 329 296 2 317 278 297 305 320 59 357 333 326 166 181 202 166 172 169 179 175 169 165 171 170 172 175 190 190 183 187 199 201 199 210 207 216 214 228 244 242 241 251
11 317 336 280 27 333 293 264 295 213 240 252 269 277 284 311 306 294 300 297 222 168 192 179 170 175 190 154 172 176 180 181 188 196 190 182 193 208 208 201 207 207 221 214 222 230 243 248 251
34 333 342 326 331 314 325 300 229 235 255 254 274 285 286 293 259 257 250 292 209 183 190 189 179 178 176 172 184 181 189 192 198 190 191 192 199 210 209 215 205 212 205 216 229 230 235 251 244
314 321 295 297 293 293 283 278 343 286 247 272 261 256 261 257 268 260 274 268 283 223 201 190 191 183 164 176 186 194 194 194 193 201 199 198 202 205 208 217 218 221 206 222 226 221 226 251 252
267 306 321 290 263 270 275 305 253 256 275 261 265 264 261 255 247 246 234 244 238 236 214 220 209 177 176 184 183 186 197 193 196 207 205 199 199 205 206 216 219 226 213 220 220 228 235 241 230
360 351 327 281 326 262 240 283 284 295 274 281 268 277 269 256 220 226 234 221 244 241 192 199 200 208 194 183 193 196 196 199 205 210 207 206 199 204 211 215 220 225 210 209 210 213 211 210 209
344 247 264 319 294 303 326 299 283 285 282 277 274 264 266 267 266 234 224 217 219 206 212 211 207 195 201 195 193 204 205 206 221 216 215 219 210 203 206 213 217 214 202 207 194 215 188 199 180
253 270 261 281 294 346 318 303 317 303 281 273 277 269 252 244 246 244 226 220 218 215 196 191 194 207 208 177 158 264 184 205 212 205 286 237 229 218 198 190 206 191 186 209 210 183 128 172 148
263 300 311 325 298 333 300 299 301 304 283 282 279 273 265 257 245 240 247 228 219 221 193 202 173 212 148 167 145 216 223 192 207 211 193 284 266 222 229 209 186 185 195 196 215 160 156 50 162
331 320 301 265 320 315 300 300 294 296 270 273 277 286 276 270 282 253 230 228 211 212 201 194 197 179 189 169 169 168 174 185 186 201 231 185 249 245 229 240 200 182 196 202 196 172 130 205 206
290 244 283 282 315 263 293 281 293 307 283 288 339 328 304 280 283 254 236 226 215 207 190 186 193 189 181 172 146 192 77 77 177 178 197 220 234 254 243 271 272 190 186 205 187 179 158 161 353
286 234 272 321 354 308 5 299 320 303 318 13 343 357 330 317 358 283 264 280 207 213 189 178 182 177 189 177 170 186 188 212 225 192 198 208 211 210 176 112 312 265 191 184 180 181 173 145 149
257 308 305 280 288 310 304 280 283 331 331 334 2 357 347 341 350 304 18 359 204 174 179 176 176 183 196 183 188 175 201 220 209 185 230 219 213 204 189 155 153 295 252 200 147 149 189 120 136
293 357 351 358 54 10 261 110 270 352 296 2 13 24 11 335 326 326 14 27 19 54 12 292 178 201 198 188 199 195 208 221 216 240 243 237 195 171 181 176 190 205 249 153 115 149 169 112 99
23 34 331 342 358 232 307 321 260 305 334 61 21 19 5 8 12 314 32 30 42 41 69 77 61 318 343 324 301 232 205 215 229 225 221 247 202 188 186 189 193 180 145 114 116 115 102 101 96
272 145 158 277 292 295 152 254 267 212 238 58 34 24 7 349 335 335 346 17 34 43 32 35 46 54 163 132 64 195 234 233 234 219 234 238 222 200 186 181 202 119 114 116 105 92 97 93 93
287 235 224 257 243 307 246 279 293 328 3 45 62 11 10 311 319 347 358 9 11 38 35 27 20 2 23 94 57 11 260 236 233 247 193 250 234 144 121 141 125 110 106 123 113 117 94 82 75
227 327 342 325 289 267 272 273 241 319 346 7 20 3 319 314 311 335 3 6 5 11 18 32 26 24 357 360 5 333 313 262 227 152 135 166 163 130 125 122 112 107 122 109 83 69 81 83 67
304 320 329 163 224 249 283 263 248 244 224 45 289 253 214 292 294 308 333 333 342 357 10 23 22 16 17 4 350 359 339 330 142 124 141 118 127 139 136 132 125 127 140 119 112 101 88 96 91
193 185 141 130 279 248 258 265 252 216 244 221 269 254 251 233 264 281 288 299 343 6 11 4 12 15 11 3 354 334 353 80 116 115 128 123 113 108 112 126 122 126 106 126 113 100 102 95 99